Teterboro, NJ

2:55 AM EDT on May 26, 2017 (GMT -0400)
Teterboro

Weather History for KTEB - November, 2012

Change the Weather History Date:

Friday, November 2, 2012

  Actual Average Record
Temperature  
Mean Temperature 48 °F -  
Max Temperature 53 °F 57 °F 77 °F (2016)
Min Temperature 43 °F 39 °F 30 °F (2002)
Degree Days  
Heating Degree Days 17    
Moisture  
Dew Point 35 °F    
Average Humidity 61    
Maximum Humidity 74    
Minimum Humidity 45    
Precipitation  
Precipitation 0.00 in - - ()
Sea Level Pressure  
Sea Level Pressure 29.65 in    
Wind  
Wind Speed 8 mph (West)    
Max Wind Speed 16 mph    
Max Gust Speed 23 mph    
Visibility 10 miles    
Events      
Averages and records for this station are not official NWS values.
T = Trace of Precipitation, MM = Missing Value Source: NWS Daily Summary

Daily Weather History Graph

Daily Weather History Graph

Search for Another Location

Airport or City:

Trip Planner

Search our weather history database for the weather conditions in past years. The results will help you decide how hot, cold, wet, or windy it might be!

Date:

Astronomy

Nov. 02, 2012 Rise Set
Actual Time 7:28 AM EDT 5:50 PM EDT
Civil Twilight 6:59 AM EDT 6:19 PM EDT
Nautical Twilight 6:27 AM EDT 6:51 PM EDT
Astronomical Twilight 5:55 AM EDT 7:23 PM EDT
Moon 8:34 PM EDT (11/2) 10:47 AM EDT (11/2)
Length of Visible Light 11h 19m
Length of Day
10h 22m
Waning Gibbous, 87% of the Moon is Illuminated
Nov 2
Waning Gibbous
Nov 6
Last Quarter
Nov 13
New
Nov 20
First Quarter
Nov 28
Full

Hourly Weather History & Observations

Time (EDT) Temp. Windchill Dew Point Humidity Pressure Visibility Wind Dir Wind Speed Gust Speed Precip Events Conditions
12:51 AM 48.0 °F - 39.0 °F 71% 29.61 in 10.0 mi West 5.8 mph - N/A   Overcast
1:51 AM 48.0 °F - 37.9 °F 68% 29.61 in 10.0 mi WSW 4.6 mph - N/A   Overcast
2:51 AM 48.0 °F - 37.9 °F 68% 29.62 in 10.0 mi SW 5.8 mph - N/A   Overcast
3:51 AM 46.9 °F - 39.0 °F 74% 29.61 in 10.0 mi WSW 6.9 mph - 0.00 in   Overcast
4:51 AM 48.0 °F - 37.9 °F 68% 29.61 in 10.0 mi West 8.1 mph - N/A   Overcast
5:51 AM 46.9 °F - 37.9 °F 71% 29.62 in 10.0 mi West 6.9 mph - N/A   Overcast
6:51 AM 46.9 °F - 37.9 °F 71% 29.62 in 10.0 mi SW 5.8 mph - N/A   Overcast
7:51 AM 46.9 °F - 37.9 °F 71% 29.63 in 10.0 mi West 5.8 mph - N/A   Overcast
8:51 AM 48.0 °F - 37.0 °F 66% 29.64 in 10.0 mi West 8.1 mph - N/A   Overcast
9:51 AM 48.9 °F - 36.0 °F 61% 29.65 in 10.0 mi West 9.2 mph - N/A   Overcast
10:51 AM 51.1 °F - 35.1 °F 54% 29.64 in 10.0 mi WNW 15.0 mph 19.6 mph N/A   Overcast
11:51 AM 53.1 °F - 35.1 °F 50% 29.63 in 10.0 mi WNW 12.7 mph 19.6 mph N/A   Mostly Cloudy
12:51 PM 51.1 °F - 32.0 °F 48% 29.62 in 10.0 mi West 10.4 mph - N/A   Overcast
1:51 PM 50.0 °F - 33.1 °F 52% 29.61 in 10.0 mi West 13.8 mph 19.6 mph N/A   Overcast
2:51 PM 52.0 °F - 30.9 °F 45% 29.61 in 10.0 mi WNW 11.5 mph - N/A   Overcast
3:51 PM 50.0 °F - 30.9 °F 48% 29.62 in 10.0 mi NW 6.9 mph - N/A   Overcast
4:51 PM 50.0 °F - 32.0 °F 50% 29.64 in 10.0 mi NW 8.1 mph - N/A   Overcast
5:51 PM 48.9 °F - 30.9 °F 50% 29.66 in 10.0 mi West 13.8 mph 21.9 mph N/A   Overcast
6:51 PM 46.9 °F - 33.1 °F 59% 29.70 in 10.0 mi WNW 12.7 mph - N/A   Overcast
7:51 PM 46.0 °F 39.6 °F 32.0 °F 58% 29.72 in 10.0 mi West 15.0 mph 21.9 mph N/A   Overcast
8:51 PM 45.0 °F 37.9 °F 32.0 °F 60% 29.74 in 10.0 mi NW 16.1 mph 23.0 mph N/A   Overcast
9:51 PM 44.1 °F 38.1 °F 32.0 °F 63% 29.75 in 10.0 mi WNW 11.5 mph 20.7 mph N/A   Overcast
10:51 PM 43.0 °F 37.2 °F 32.0 °F 65% 29.76 in 10.0 mi NW 10.4 mph 19.6 mph N/A   Overcast
11:51 PM 43.0 °F 35.7 °F 30.9 °F 62% 29.76 in 10.0 mi WNW 15.0 mph 19.6 mph N/A   Mostly Cloudy